Aérodrome :
LOGIN :

S'inscrire | Disclaimer

   EN    FR    IT 

 










Légende :    VFR   VFR Marginal   IFR   IFR Intensif   IFR Très Intensif
Visi : 
Plafond : 
>= 8 km
>= 3000ft
5 à 8 km
1000 à 3000 ft
1500m à 5 km
500 à 1000 ft
800 à 1500m
200 à 500 ft
< 800m
< 200 ft
Symboles :   Orages  Brouillard  Fortes neiges  Fortes précipitations  Vent > 20 kt
SIGMETs :   Divers  Orages  Givrage  Turbulence  Onde Orograph.  Cendres Volcan.







- Altitude de l'aérodrome : 915 ft
- Code IATA : LUG


LSZA - Lugano

DERNIER METAR :
  • 181950Z VRB01KT CAVOK M01/M03 Q1027 NOSIG

METARs EXPIRÉS :
  • 181920Z 36003KT CAVOK M01/M03 Q1027 NOSIG
  • 181850Z VRB01KT CAVOK 01/M01 Q1027 NOSIG
  • 181820Z VRB01KT CAVOK 01/M01 Q1027 NOSIG
  • 181750Z VRB01KT CAVOK 01/M02 Q1027 NOSIG
  • 181720Z VRB01KT CAVOK 02/M02 Q1027 NOSIG

TAF TAF LSZA
Valide du 18 à 15h jusqu'au 19 à 00h UTC


181425Z 1815/1824 VRB03KT CAVOK
BECMG 1818/1821 4500 BR NSC
ATIS : +41 22 417 40 88
Pas de NOTAMs connus pour ce terrain.



MET'MAP, la Météo Aéronautique d'un coup d'oeil ! - Copyright ORBIFLY Décembre 2007 - Disclaimer

ORBIFLY MET'MAP TEAM :

Programmation & Développement : Alexandra Zaïnal
Conception & Développement : Baudouin d'Aumeries
Co-Programmation & Développement : Marc-Olivier Méhu
Soutien technique & logistique : Manuel Goepfert

Contact : metmap@orbifly.com




SOURCES & CREDITS :

   NOAA